Regional Weather Roundup
Issued by NWS

Home | Current Version | Previous Version | Graphics & Text | Print | Product List | Glossary Off
Versions: 1 2 3 4 5 6 7 8 9 10 11 12 13 14 15 16 17 18 19 20 21 22 23 24 25 26 27 28 29 30 31 32 33 34 35 36 37 38 39 40 41 42 43 44 45 46 47 48 49 50

381
ASUS43 KMKX 280611
RWRWI

WISCONSIN REGIONAL WEATHER ROUNDUP
NATIONAL WEATHER SERVICE MILWAUKEE/SULLIVAN WI
1200 AM CST TUE FEB 28 2017

NOTE: "FAIR" INDICATES FEW OR NO CLOUDS BELOW 12,000 FEET WITH NO
SIGNIFICANT WEATHER AND/OR OBSTRUCTIONS TO VISIBILITY.

WIZ001-002-006>008-014>016-023>028-280700-
NORTHWEST WISCONSIN

CITY           SKY/WX    TMP DP  RH WIND       PRES   REMARKS
SUPERIOR ARPT  CLOUDY    30  28  93 CALM      29.89F
6HR MIN TEMP:  28; 6HR MAX TEMP:  31;

ASHLAND        CLOUDY    24  23  96 CALM      29.90S
6HR MIN TEMP:  22; 6HR MAX TEMP:  29;

HAYWARD        CLOUDY    37  22  54 CALM      29.87F
6HR MIN TEMP:  33; 6HR MAX TEMP:  37;

SIREN          PTCLDY    35  24  62 SE6       29.84F WCI  30
6HR MIN TEMP:  35; 6HR MAX TEMP:  39;

CUMBERLAND     MOCLDY    32  23  69 SE5       29.85F WCI  27
RICE LAKE      MOCLDY    35  24  66 E5        29.88F WCI  30
6HR MIN TEMP:  33; 6HR MAX TEMP:  36;

CHETEK         MOCLDY    32  24  72 CALM      29.88F
6HR MIN TEMP:  29; 6HR MAX TEMP:  36;

LADYSMITH      CLOUDY    33  25  73 E5        29.91F WCI  28
6HR MIN TEMP:  32; 6HR MAX TEMP:  37;

EAU CLAIRE     CLOUDY    34  27  75 SE3       29.87F
6HR MIN TEMP:  32; 6HR MAX TEMP:  39;

MENOMONIE      PTCLDY    32  26  77 SE5       29.88S WCI  27
6HR MIN TEMP:  31; 6HR MAX TEMP:  37;

NEW RICHMOND   MOCLDY    34  26  74 SE7       29.84F WCI  27
6HR MIN TEMP:  33; 6HR MAX TEMP:  37;

OSCEOLA        CLOUDY    37  27  67 SE6       29.86F WCI  32
6HR MIN TEMP:  35; 6HR MAX TEMP:  37;

$$

WIZ003>005-009-010-017-018-280700-
NORTH CENTRAL WISCONSIN

CITY           SKY/WX    TMP DP  RH WIND       PRES   REMARKS
MANITOWISH WTR CLOUDY    31  24  74 SE5       29.90F WCI  27
6HR MIN TEMP:  29; 6HR MAX TEMP:  34;

ARBOR VITAE    CLOUDY    32  26  77 SE8         N/A  WCI  25
6HR MIN TEMP:  32; 6HR MAX TEMP:  37;

WOODRUFF       CLOUDY    32  26  77 SE8         N/A  WCI  25
6HR MIN TEMP:  32; 6HR MAX TEMP:  37;

RHINELANDER    CLOUDY    32  27  81 CALM      29.94F
6HR MIN TEMP:  31; 6HR MAX TEMP:  36;

EAGLE RIVER    CLOUDY    31  24  75 CALM      29.94S
6HR MIN TEMP:  29; 6HR MAX TEMP:  34;

LAND O LAKES   CLOUDY    32  26  77 S5        29.95S WCI  27
6HR MIN TEMP:  30; 6HR MAX TEMP:  35;

PHILLIPS       PTCLDY    33  27  79 CALM      29.89S
6HR MIN TEMP:  31; 6HR MAX TEMP:  36;

TOMAHAWK       CLOUDY    32  27  81 CALM      29.93F
6HR MIN TEMP:  28; 6HR MAX TEMP:  32;

MEDFORD        PTCLDY    34  28  80 SE6       29.90F WCI  29
6HR MIN TEMP:  30; 6HR MAX TEMP:  35;

MERRILL        NOT AVBL
$$

WIZ029-030-035-036-043>047-280700-
CENTRAL WISCONSIN

CITY           SKY/WX    TMP DP  RH WIND       PRES   REMARKS
WAUSAU         CLOUDY    32  27  81 E5        29.93F WCI  27
6HR MIN TEMP:  31; 6HR MAX TEMP:  38;

MOSINEE        CLOUDY    32  30  93 E6        29.95F WCI  26
MARSHFIELD     CLOUDY    34  28  79 E7        29.91F WCI  28
6HR MIN TEMP:  33; 6HR MAX TEMP:  37;

STEVENS POINT  CLOUDY    32  28  87 E3        29.96F
6HR MIN TEMP:  29; 6HR MAX TEMP:  36;

WAUPACA        CLOUDY    33  30  88 CALM      29.98F
6HR MIN TEMP:  32; 6HR MAX TEMP:  39;

WAUTOMA        CLOUDY    33  31  92 CALM      29.97F
6HR MIN TEMP:  28; 6HR MAX TEMP:  38;

WISC RAPIDS    CLOUDY    36  30  79 SE5       29.95F WCI  32
6HR MIN TEMP:  33; 6HR MAX TEMP:  40;

CAMP DOUGLAS   CLOUDY    37  31  77 SE5       29.92F WCI  34
6HR MIN TEMP:  31; 6HR MAX TEMP:  38;

$$

WIZ011>013-019>022-031-037>040-048>050-280700-
NORTHEAST WISCONSIN

CITY           SKY/WX    TMP DP  RH WIND       PRES   REMARKS
ANTIGO         CLOUDY    30  28  91 SE6       29.95F WCI  24
6HR MIN TEMP:  26; 6HR MAX TEMP:  33;

SHAWANO        CLOUDY    32  30  91 CALM      30.00F
6HR MIN TEMP:  30; 6HR MAX TEMP:  38;

OCONTO         CLOUDY    29  28  95 CALM      30.02F
6HR MIN TEMP:  27; 6HR MAX TEMP:  35;

STURGEON BAY   MOCLDY    36  34  92 S8        30.04F WCI  30
6HR MIN TEMP:  34; 6HR MAX TEMP:  36;

GREEN BAY      CLOUDY    33  31  92 CALM      30.01F
6HR MIN TEMP:  31; 6HR MAX TEMP:  36;

MANITOWOC      FOG       34  32  93 E3        30.03F VSB 3/4
6HR MIN TEMP:  32; 6HR MAX TEMP:  36;

APPLETON       CLOUDY    34  30  86 SE3       29.97F
CLINTONVILLE   CLOUDY    32  30  93 CALM      29.99F
OSHKOSH        CLOUDY    37  31  78 S6        29.98F WCI  32
6HR MIN TEMP:  32; 6HR MAX TEMP:  37;

$$

WIZ032>034-041-042-053>061-280700-
SOUTHWEST WISCONSIN

CITY           SKY/WX    TMP DP  RH WIND       PRES   REMARKS
LA CROSSE      CLOUDY    39  32  76 SE5       29.90F
6HR MIN TEMP:  38; 6HR MAX TEMP:  44;

SPARTA         CLOUDY    35  31  87 CALM      29.92F
6HR MIN TEMP:  33; 6HR MAX TEMP:  40;

VIROQUA        CLOUDY    40  34  79 S10G18    29.92R WCI  34
6HR MIN TEMP:  37; 6HR MAX TEMP:  40;

BOSCOBEL       LGT RAIN  38  36  92 CALM      29.94S FOG
6HR MIN TEMP:  34; 6HR MAX TEMP:  45; 6HR PCP:  0.03;

PRAIRIE DU CHI RAIN      41  36  83 E8        29.90F
6HR MIN TEMP:  40; 6HR MAX TEMP:  46; 6HR PCP:  0.07;

PLATTEVILLE    MOCLDY    42  37  82 E8        29.90F
6HR MIN TEMP:  40; 6HR MAX TEMP:  44;

$$

WIZ056-057-062-063-064-067-068-280700-
SOUTH CENTRAL WISCONSIN

CITY           SKY/WX    TMP DP  RH WIND       PRES   REMARKS
REEDSBURG      MOCLDY    33  32  94 CALM      29.94S
6HR MIN TEMP:  33; 6HR MAX TEMP:  43;

BARABOO/DELLS  MOCLDY    39  31  72 CALM      29.94F
6HR MIN TEMP:  35; 6HR MAX TEMP:  41;

LONE ROCK      LGT RAIN  41  36  82 NE5       29.95S
6HR MIN TEMP:  36; 6HR MAX TEMP:  44; 6HR PCP:  0.01;

MINERAL POINT  LGT RAIN  45  36  70 E5        29.92F
MADISON        CLOUDY    42  33  70 SE10      29.95F
6HR MIN TEMP:  36; 6HR MAX TEMP:  45;

MIDDLETON      CLOUDY    43  34  70 SE6       29.95F
6HR MIN TEMP:  34; 6HR MAX TEMP:  46;

WATERTOWN      CLOUDY    39  34  83 SE8       29.97F WCI  33
6HR MIN TEMP:  37; 6HR MAX TEMP:  43;

MONROE         CLOUDY    41  34  75 E3        29.93F
JANESVILLE     CLOUDY    43  36  75 SE9       29.95F
$$

WIZ051-052-058>065-066-070>072-280700-
SOUTHEAST WISCONSIN

CITY           SKY/WX    TMP DP  RH WIND       PRES   REMARKS
MILWAUKEE      MOCLDY    44  35  70 S9        30.02S
6HR MIN TEMP:  40; 6HR MAX TEMP:  45;

WAUKESHA       CLOUDY    39  32  75 SE9       30.01F WCI  33
MILWAUKEE/TIMM CLOUDY    41  32  70 SE6       30.02F
RACINE         MOCLDY    41  35  79 S10       30.04R
6HR MIN TEMP:  40; 6HR MAX TEMP:  42;

KENOSHA        CLOUDY    43  36  76 S8        30.01F
6HR MIN TEMP:  40; 6HR MAX TEMP:  44;

FOND DU LAC    CLOUDY    39  31  72 S6        29.99F WCI  35
6HR MIN TEMP:  35; 6HR MAX TEMP:  39;

SHEBOYGAN      CLOUDY    35  32  88 SE3       30.02F
6HR MIN TEMP:  30; 6HR MAX TEMP:  37;

WEST BEND      CLOUDY    37  34  87 CALM      30.01S
JUNEAU         CLOUDY    38  33  81 E10       29.98F WCI  31
6HR MIN TEMP:  37; 6HR MAX TEMP:  42;

$$

LSZ147-162-280700-
LAKE SUPERIOR

STATION/POSITION TIME  TEMP    WIND        PRES    WAVE
                       AIR SEA DIR/SP/G            HT/PER
                 (UTC) (F)     (DEG/KT/KT) (MB)    (FT/S)
DEVILS ISLAND    0600   33      20/  8/  8 1013.8S
PORT WING        0540   30      60/  6/  8 1012.9R
SAXON HARBOR     0530   37     200/  4/ 20 1011.5F
$$

LMZ867-665-643>646-280700-
LAKE MICHIGAN

STATION/POSITION TIME  TEMP    WIND        PRES    WAVE
                       AIR SEA DIR/SP/G            HT/PER
                 (UTC) (F)     (DEG/KT/KT) (MB)    (FT/S)
CHAMBERS ISLAND  0540   37     140/  4/  8 1016.9S
NORTHPORT PIER   0540   36     150/  6/ 11 1017.6F
SISTER BAY



USA.gov is the U.S. government's official web portal to all federal, state and local government web resources and services.